Location: La Trinit�
(48.1620°N, 3.4512°W)
Time: 16:00:01
(UTC+00:00)

Cosmos 1743 - Pass Details

Date: 08 May 2021
Orbit: 510 x 525 km, 82.6° (Epoch: 24 June)

Event Time Altitude Azimuth Distance (km) Brightness Sun altitude
Rises 23:26:13 0° 344° (NNW) 2,650 7.7 -23.7°
Reaches altitude 10° 23:28:24 10° 338° (NNW) 1,760 6.4 -23.8°
Enters shadow 23:31:45 42° 282° (WNW) 750 3.6 -23.9°
